Log Lane Village, CO

5:10 AM MST on February 11, 2016 (GMT -0700)
Fort Morgan

Weather History for KFMM - October, 2013

Change the Weather History Date:

Monday, October 21, 2013

  Actual Average (KAKO) Record (KAKO)
Temperature  
Mean Temperature 44 °F 48 °F  
Max Temperature 60 °F 62 °F 86 °F (1940)
Min Temperature 28 °F 35 °F 20 °F (1976)
Degree Days  
Heating Degree Days 21    
Month to date heating degree days  
Cooling Degree Days 0    
Month to date cooling degree days  
Moisture  
Dew Point 32 °F    
Average Humidity 71    
Maximum Humidity 99    
Minimum Humidity 31    
Precipitation  
Precipitation 0.00 in 0.03 in 1.00 in (1941)
Month to date precipitation 0.84  
Year to date precipitation 15.49  
Sea Level Pressure  
Sea Level Pressure 30.13 in    
Wind  
Wind Speed 9 mph (WNW)    
Max Wind Speed 16 mph    
Max Gust Speed 26 mph    
Visibility 8 miles    
Events Fog , Snow    
T = Trace of Precipitation, MM = Missing Value Source: NWS Daily Summary

Daily Weather History Graph

Daily Weather History Graph

Search for Another Location

Airport or City:

Trip Planner

Search our weather history database for the weather conditions in past years. The results will help you decide how hot, cold, wet, or windy it might be!

Date:

Astronomy

Oct. 21, 2013 Rise Set
Actual Time 7:12 AM MDT 6:06 PM MDT
Civil Twilight 6:45 AM MDT 6:33 PM MDT
Nautical Twilight 6:13 AM MDT 7:05 PM MDT
Astronomical Twilight 5:41 AM MDT 7:36 PM MDT
Moon 8:00 PM MDT (10/21) 9:50 AM MDT (10/21)
Length of Visible Light 11h 48m
Length of Day
10h 53m
Waning Gibbous, 92% of the Moon is Illuminated
Oct 21
Waning Gibbous
Oct 26
Last Quarter
Nov 3
New
Nov 9
First Quarter
Nov 17
Full

Hourly Weather History & Observations

Time (MDT) Temp. Windchill Dew Point Humidity Pressure Visibility Wind Dir Wind Speed Gust Speed Precip Events Conditions
12:15 AM 35.8 °F 29.4 °F 35.1 °F 97% 30.15 in 7.0 mi NNW 8.1 mph - N/A   Light Drizzle
12:35 AM 35.8 °F 29.4 °F 34.9 °F 97% 30.15 in 10.0 mi NW 8.1 mph - N/A   Mostly Cloudy
12:55 AM 37.4 °F 31.4 °F 35.2 °F 92% 30.14 in 10.0 mi WNW 8.1 mph - N/A   Overcast
1:15 AM 35.4 °F 29.7 °F 33.4 °F 92% 30.14 in 10.0 mi West 6.9 mph - N/A   Overcast
1:35 AM 33.6 °F 30.6 °F 32.4 °F 95% 30.14 in 7.0 mi NW 3.5 mph - N/A   Overcast
1:55 AM 34.2 °F 28.2 °F 32.9 °F 95% 30.15 in 10.0 mi West 6.9 mph - N/A   Scattered Clouds
2:15 AM 32.0 °F 25.6 °F 30.9 °F 96% 30.15 in 7.0 mi West 6.9 mph - N/A   Clear
2:35 AM 32.0 °F - 31.1 °F 96% 30.15 in 10.0 mi North - - N/A   Clear
2:55 AM 32.0 °F 26.4 °F 31.1 °F 96% 30.15 in 10.0 mi West 5.8 mph - N/A   Clear
3:15 AM 31.8 °F 26.2 °F 30.9 °F 96% 30.15 in 10.0 mi WNW 5.8 mph - N/A   Clear
3:35 AM 32.0 °F 25.6 °F 30.7 °F 95% 30.15 in 10.0 mi WSW 6.9 mph - N/A   Clear
3:55 AM 31.3 °F 24.7 °F 30.0 °F 95% 30.15 in 10.0 mi West 6.9 mph - N/A   Clear
4:15 AM 31.1 °F 25.4 °F 30.2 °F 96% 30.15 in 10.0 mi West 5.8 mph - N/A   Clear
4:35 AM 30.6 °F 23.8 °F 29.7 °F 96% 30.14 in 7.0 mi West 6.9 mph - N/A   Clear
4:55 AM 30.4 °F 23.6 °F 29.7 °F 97% 30.14 in 5.0 mi West 6.9 mph - N/A   Clear
5:15 AM 30.0 °F 22.4 °F 29.3 °F 97% 30.14 in 7.0 mi West 8.1 mph - N/A   Clear
5:35 AM 30.2 °F 23.4 °F 29.3 °F 96% 30.15 in 7.0 mi West 6.9 mph - N/A   Clear
5:55 AM 30.0 °F 23.2 °F 29.3 °F 97% 30.15 in 5.0 mi West 6.9 mph - N/A   Clear
6:15 AM 29.1 °F 21.3 °F 28.4 °F 97% 30.15 in 5.0 mi West 8.1 mph - N/A   Clear
6:35 AM 28.8 °F 20.2 °F 28.0 °F 97% 30.15 in 2.5 mi West 9.2 mph - N/A   Scattered Clouds
6:55 AM 28.4 °F 19.7 °F 28.0 °F 99% 30.14 in 0.2 mi West 9.2 mph - N/A Fog Light Freezing Fog
7:15 AM 28.9 °F 18.6 °F 28.4 °F 98% 30.15 in 0.2 mi West 12.7 mph - N/A Fog Light Freezing Fog
7:35 AM 28.9 °F 19.8 °F 28.4 °F 98% 30.16 in 0.2 mi West 10.4 mph - N/A Snow Light Snow
7:55 AM 28.8 °F 19.5 °F 28.4 °F 99% 30.16 in 0.2 mi West 10.4 mph - N/A Snow Light Snow
8:15 AM 28.9 °F 19.2 °F 28.4 °F 98% 30.17 in 0.2 mi West 11.5 mph - N/A Fog Light Freezing Fog
8:35 AM 29.5 °F 21.8 °F 29.3 °F 99% 30.17 in 0.2 mi West 8.1 mph - N/A Fog Light Freezing Fog
8:55 AM 30.7 °F 21.4 °F 30.2 °F 98% 30.17 in 0.2 mi West 11.5 mph - N/A Fog Light Freezing Fog
9:15 AM 31.1 °F 20.1 °F 30.7 °F 99% 30.17 in 0.2 mi West 16.1 mph - N/A Fog Light Freezing Fog
9:35 AM 32.2 °F 22.3 °F 32.0 °F 99% 30.17 in 0.2 mi West 13.8 mph - N/A Fog Fog
9:55 AM 33.8 °F 24.3 °F 33.3 °F 98% 30.17 in 0.2 mi West 13.8 mph - N/A Fog Fog
10:15 AM 35.4 °F 26.0 °F 34.7 °F 97% 30.17 in 0.2 mi West 15.0 mph - N/A Fog Fog
10:35 AM 36.9 °F 27.8 °F 36.3 °F 98% 30.16 in 0.8 mi West 15.0 mph - N/A   Overcast
10:55 AM 38.5 °F 29.9 °F 37.6 °F 97% 30.16 in 3.0 mi West 15.0 mph - N/A   Mostly Cloudy
11:15 AM 41.2 °F 33.4 °F 37.8 °F 88% 30.15 in 7.0 mi West 15.0 mph - N/A   Clear
11:55 AM 48.2 °F - 37.6 °F 67% 30.15 in 10.0 mi West 16.1 mph - N/A   Mostly Cloudy
12:15 PM 49.6 °F - 36.5 °F 61% 30.15 in 10.0 mi West 15.0 mph - N/A   Scattered Clouds
12:35 PM 53.1 °F - 35.8 °F 52% 30.13 in 10.0 mi West 13.8 mph - N/A   Scattered Clouds
12:55 PM 54.3 °F - 35.2 °F 49% 30.13 in 10.0 mi West 16.1 mph - N/A   Mostly Cloudy
1:15 PM 54.9 °F - 32.7 °F 43% 30.12 in 10.0 mi WNW 13.8 mph 21.9 mph N/A   Overcast
1:35 PM 57.6 °F - 32.5 °F 39% 30.11 in 10.0 mi West 11.5 mph 16.1 mph N/A   Scattered Clouds
1:55 PM 57.7 °F - 30.6 °F 36% 30.10 in 10.0 mi West 10.4 mph - N/A   Scattered Clouds
2:15 PM 58.1 °F - 29.3 °F 33% 30.09 in 10.0 mi West 16.1 mph 26.5 mph N/A   Mostly Cloudy
2:35 PM 59.5 °F - 29.7 °F 32% 30.09 in 10.0 mi WNW 12.7 mph 21.9 mph N/A   Scattered Clouds
2:55 PM 57.7 °F - 29.3 °F 34% 30.09 in 10.0 mi West 11.5 mph 18.4 mph N/A   Mostly Cloudy
3:15 PM 60.1 °F - 28.9 °F 31% 30.08 in 10.0 mi NW 11.5 mph 19.6 mph N/A   Mostly Cloudy
3:35 PM 58.8 °F - 29.7 °F 33% 30.09 in 10.0 mi NNW 16.1 mph 23.0 mph N/A   Scattered Clouds
3:55 PM 58.6 °F - 29.7 °F 33% 30.08 in 10.0 mi NW 16.1 mph 24.2 mph N/A   Clear
4:15 PM 55.8 °F - 30.9 °F 39% 30.09 in 10.0 mi NNW 10.4 mph - N/A   Clear
4:35 PM 54.7 °F - 30.2 °F 39% 30.08 in 10.0 mi NNW 9.2 mph - N/A   Clear
4:55 PM 57.7 °F - 29.7 °F 34% 30.08 in 10.0 mi NW 9.2 mph - N/A   Scattered Clouds
5:15 PM 56.8 °F - 29.1 °F 35% 30.08 in 10.0 mi WNW 10.4 mph 16.1 mph N/A   Mostly Cloudy
5:35 PM 55.9 °F - 30.0 °F 37% 30.08 in 10.0 mi NW 8.1 mph - N/A   Mostly Cloudy
5:55 PM 55.6 °F - 29.5 °F 37% 30.08 in 10.0 mi NW 9.2 mph - N/A   Overcast
6:15 PM 53.2 °F - 30.2 °F 41% 30.08 in 10.0 mi NW 9.2 mph - N/A   Overcast
6:35 PM 50.4 °F - 30.2 °F 46% 30.08 in 10.0 mi NW 9.2 mph - N/A   Mostly Cloudy
6:55 PM 49.5 °F - 30.6 °F 48% 30.09 in 10.0 mi NW 10.4 mph - N/A   Mostly Cloudy
7:15 PM 47.1 °F - 32.0 °F 56% 30.09 in 10.0 mi WNW 5.8 mph - N/A   Overcast
7:35 PM 48.2 °F - 32.4 °F 54% 30.09 in 10.0 mi WNW 8.1 mph - N/A   Overcast
7:55 PM 49.3 °F - 32.9 °F 53% 30.09 in 10.0 mi WNW 8.1 mph - N/A   Overcast
8:15 PM 48.7 °F - 33.3 °F 55% 30.09 in 10.0 mi WNW 5.8 mph - N/A   Overcast
8:35 PM 48.2 °F - 32.7 °F 55% 30.09 in 10.0 mi West 8.1 mph - N/A   Overcast
8:55 PM 49.3 °F - 32.7 °F 53% 30.10 in 10.0 mi West 8.1 mph - N/A   Overcast
9:15 PM 47.5 °F - 33.1 °F 57% 30.11 in 10.0 mi West 9.2 mph - N/A   Overcast
9:35 PM 46.8 °F - 33.8 °F 61% 30.12 in 10.0 mi West 10.4 mph - N/A   Overcast
9:55 PM 46.9 °F - 34.0 °F 61% 30.12 in 10.0 mi West 6.9 mph - N/A   Overcast
10:15 PM 46.9 °F - 34.3 °F 62% 30.12 in 10.0 mi West 8.1 mph - N/A   Overcast
10:35 PM 46.4 °F 41.9 °F 34.5 °F 63% 30.12 in 10.0 mi West 9.2 mph - N/A   Overcast
10:55 PM 46.9 °F - 34.0 °F 61% 30.13 in 10.0 mi West 9.2 mph - N/A   Overcast
11:15 PM 46.8 °F - 33.8 °F 61% 30.13 in 10.0 mi West 4.6 mph - N/A   Overcast
11:35 PM 46.9 °F - 33.8 °F 60% 30.13 in 10.0 mi NNW 8.1 mph - N/A   Overcast
11:55 PM 47.5 °F - 32.9 °F 57% 30.13 in 10.0 mi NW 6.9 mph - N/A   Overcast